[Iaude] MPEC K12: 2019 CC30 [a=43.50,e=0.02,i=3.9,H=7.7]
    mpec at cfa.harvard.edu 
    mpec at cfa.harvard.edu
       
    Fri May 17 15:22:37 EDT 2024
    
    
  
M.P.E.C. 2024-K12                                  Issued 2024 May 17, 19:20 UT
     The Minor Planet Electronic Circulars contain information on unusual
         minor planets, routine data on comets and natural satellites,
         and occasional editorial announcements.  They are published
    on behalf of Division F of the International Astronomical Union by the
          Minor Planet Center, Smithsonian Astrophysical Observatory,
                          Cambridge, MA 02138, U.S.A.
			  
             Prepared using the Tamkin Foundation Computer Network
                              MPC at CFA.HARVARD.EDU
            URL https://www.minorplanetcenter.net/    ISSN 1523-6714
                                   2019 CC30                                    
Observations:
     K19C30C 4C2018 03 18.46982 11 56 19.50 +03 36 46.6          23.7 i1EK012T09
     K19C30C 4C2018 03 18.51105 11 56 19.31 +03 36 47.7          23.8 i1EK012T09
     K19C30C 4C2018 03 18.58405 11 56 19.00 +03 36 49.9          23.8 i1EK012T09
     K19C30C 4C2018 04 24.40683 11 53 48.60 +03 52 39.7          23.3 z1EK012T09
     K19C30C 4C2018 04 24.45059 11 53 48.46 +03 52 40.4          23.8 z1EK012T09
     K19C30C 4C2018 04 24.45326 11 53 48.44 +03 52 40.7          23.9 z1EK012T09
     K19C30C 4C2018 04 24.50141 11 53 48.29 +03 52 41.6          23.3 z1EK012T09
     K19C30C*4C2019 02 05.54825 12 03 57.79 +02 49 20.4          23.9 i1EK012T09
     K19C30C 4C2019 02 05.59538 12 03 57.66 +02 49 21.3          23.9 i1EK012T09
     K19C30C 4C2019 02 05.62229 12 03 57.59 +02 49 21.8          23.7 i1EK012T09
     K19C30C 4C2019 02 05.66253 12 03 57.46 +02 49 22.6          23.7 i1EK012T09
     K19C30C 4C2019 03 03.51493 12 02 24.79 +03 00 46.2          23.9 z1EK012T09
     K19C30C 4C2019 03 03.52297 12 02 24.77 +03 00 46.4          23.8 z1EK012T09
     K19C30C 4C2019 03 03.57682 12 02 24.54 +03 00 48.1          23.9 z1EK012T09
     K19C30C 4C2019 03 03.57949 12 02 24.54 +03 00 48.3          24.1 z1EK012T09
     K19C30C 4C2019 03 03.61704 12 02 24.38 +03 00 49.1          23.9 z1EK012T09
Observer details:
T09 Subaru Telescope, Maunakea.  Observers H. Aihara, Y. AlSayyad, M. Ando, R.
    Armstrong, J. Bosch, E. Egami, H. Furusawa, J. Furusawa, S. Harasawa, Y.
    Harikane, B.-C. Hsieh, H. Ikeda, K. Ito, I. Iwata, T. Kodama, M. Koike, M.
    Kokubo, Y. Komiyama, X. Li, Y. Liang, Y.-T. Lin, R. H. Lupton, N. B. Lust,
    L. A. MacArthur, K. Mawatari, S. Mineo, H. Miyatake, S. Miyazaki, S. More,
    T. Morishima, H. Murayama, K. Nakajima, F. Nakata, A. J. Nishizawa, M.
    Oguri, N. Okabe, Y. Okura, Y. Ono, K. Osato, M. Ouchi, Y.-C. Pan, A. A.
    Plazas Malagon, P. A. Price, S. L. Reed, E. S. Rykoff, T. Shibuya, M.
    Simunovic, M. A. Strauss, K. Sugimori, Y. Suto, N. Suzuki, M. Takada, Y.
    Takagi, T. Takata, S. Takita, M. Tanaka, S. Tang, D. S. Taranu, T. Terai,
    Y. Toba, E. L. Turner, H. Uchiyama, B. Vijarnwannaluk, C. Z. Waters, Y.
    Yamada, N. Yamamoto, T. Yamashita.  Measurer A. Yamauchi.  8.2-m f/2.0
    reflector + CCD(HSC).
Orbital elements:
2019 CC30                                                                       
Epoch 2024 Mar. 31.0 TT = JDT 2460400.5                 Alexandersen            
M 323.96251              (2000.0)            P               Q                  
n   0.00343515     Peri.   93.23890     -0.72487064     +0.68691939             
a  43.5016484      Node   130.15574     -0.65598082     -0.66522658             
e   0.0247142      Incl.    3.90145     -0.21036092     -0.29260101             
P 287              H    7.79          G   0.15           U   7                  
Residuals in seconds of arc
180318 T09  0.0   0.0     180424 T09  0.2+  0.1+    190303 T09  0.1+  0.0
180318 T09  0.1-  0.1-    190205 T09  0.2-  0.1+    190303 T09  0.0   0.1+
180318 T09  0.1+  0.0     190205 T09  0.0   0.1-    190303 T09  0.2+  0.3+
180424 T09  0.1-  0.1+    190205 T09  0.1+  0.2-    190303 T09  0.1+  0.0
180424 T09  0.1+  0.1-    190205 T09  0.1-  0.3-
180424 T09  0.1-  0.1+    190303 T09  0.2-  0.0
Ephemeris:
2019 CC30                a,e,i = 43.50, 0.02, 4                  q = 42.4265
Date    TT    R. A. (2000) Decl.     Delta      r    Elong.  Phase     V
2024 04 17    12 24 05.1 +00 58 36  41.7102 42.6411   157.8     0.5    24.1
...
2024 05 02    12 23 08.6 +01 04 13  41.8312 42.6405   143.0     0.8    24.2
...
2024 05 10    12 22 42.9 +01 06 37  41.9180 42.6402   135.2     1.0    24.2
...
2024 05 16    12 22 26.2 +01 08 05  41.9920 42.6400   129.3     1.1    24.2
2024 05 17    12 22 23.7 +01 08 19  42.0050 42.6399   128.4     1.1    24.2
2024 05 18    12 22 21.2 +01 08 31  42.0182 42.6399   127.4     1.1    24.2
...
2024 05 24    12 22 07.8 +01 09 36  42.1008 42.6397   121.6     1.2    24.2
...
2024 06 01    12 21 54.2 +01 10 33  42.2192 42.6393   113.9     1.2    24.2
...
2024 06 16    12 21 42.2 +01 10 46  42.4597 42.6388    99.5     1.3    24.3
M. P. C. Staff               (C) Copyright 2024 MPC           M.P.E.C. 2024-K12
    
    
More information about the Iaude
mailing list